{"data":{"norad_id":58629,"epoch":"2026-05-25T00:37:25.334688Z","epoch_age_seconds":62921,"freshness":"FRESH","line1":"1 58629U 23203M   26145.02598767 -.00000162  00000+0  36448-5 0  9991","line2":"2 58629  43.0039 359.6301 0001276 276.4990  83.5716 15.27584435135194","mean_motion":15.27584435,"eccentricity":0.0001276,"inclination_deg":43.0039,"raan_deg":359.6301,"arg_perigee_deg":276.499,"mean_anomaly_deg":83.5716,"bstar":3.6448e-6,"rev_number":13519,"period_min":94.266475031215,"perigee_km":482.16033043497,"apogee_km":483.91130173763,"semimajor_km":6861.1728160863,"source":"CELESTRAK","updated_at":"2026-05-25T13:38:18.707210Z"}}